Location: Bottenau
(48.5138°N, 8.0462°E)
Time: 10:48:14
(UTC+00:00)

ATLAS 3B R/B - Pass Details

Date: 18 April 2021
Orbit: 1006 x 1189 km, 63.8° (Epoch: 21 April)

Event Time Altitude Azimuth Distance (km) Brightness Sun altitude
Rises 20:39:38 0° 316° (NW) 3,894 7.3 -19.8°
Reaches altitude 10° 20:42:24 10° 309° (NW) 2,961 6.2 -20.2°
Maximum altitude 20:48:51 40° 243° (WSW) 1,609 3.7 -20.9°
Enters shadow 20:53:12 21° 187° (S) 2,346 4.1 -21.4°
